Terminal Aerodrome Forecast
Issued by NWS Wilmington, OH

Current Version | Previous Version | Text Only | Print | Product List | Glossary Off
Versions: 1 2 3 4 5 6 7 8 9 10 11 12 13 14 15 16 17 18 19 20 21 22 23 24

000
FTUS41 KILN 100206 AAA
TAFCVG
TAF AMD
KCVG 100206Z 1002/1106 27012KT P6SM VCSH OVC025
     FM100300 29010KT P6SM BKN025
     FM100900 27007KT P6SM SCT025 OVC200
     FM101300 23012KT P6SM OVC100
     FM102200 22007KT P6SM BKN050=

USA.gov is the U.S. government's official web portal to all federal, state and local government web resources and services.